Location: Asheville, NC
(35.6000°N, 82.5500°W)
Time: 19:29:02
(UTC-04:00)

CUTE-I - Pass Details

Date: 11 February 2018
Orbit: 810 x 826 km, 98.7° (Epoch: 27 May)

Event Time Altitude Azimuth Distance (km) Brightness Sun altitude
Rises 19:06:16 0° 199° (SSW) 3,311 ? -12.3°
Reaches altitude 10° 19:09:05 10° 214° (SW) 2,385 ? -12.9°
Maximum altitude 19:13:09 22° 265° (W) 1,684 ? -13.7°
Drops below altitude 10° 19:17:15 10° 316° (NW) 2,399 ? -14.6°
Sets 19:20:06 0° 331° (NNW) 3,337 ? -15.1°
